This is the latest recevied weather packets stored in our database for station/object NC4M. If no packets are shown the sender has not sent any weather packets the latest 10 day(s).
| Time | Temp. | Humidity | Pressure | Rain* | Wind** | Luminosity | Snow |
|---|---|---|---|---|---|---|---|
| 1787729989 | 22.78° C | 91% | 1016.4 hPa | 0 mm | - | 0 W/m² | - |
| 1787729689 | 22.78° C | 91% | 1016.4 hPa | 0 mm | - | 0 W/m² | - |
| 1787729384 | 22.78° C | 92% | 1016.5 hPa | 0 mm | - | 0 W/m² | - |
| 1787729079 | 22.78° C | 91% | 1016.4 hPa | 0 mm | - | 0 W/m² | - |
| 1787728779 | 22.78° C | 91% | 1016.4 hPa | 0 mm | - | 0 W/m² | - |
| 1787728475 | 22.78° C | 89% | 1016.3 hPa | 0 mm | - | 0 W/m² | - |
| 1787728170 | 22.78° C | 90% | 1016.6 hPa | 0 mm | - | 0 W/m² | - |
| 1787727866 | 22.78° C | 91% | 1016.4 hPa | 0 mm | - | 0 W/m² | - |
| 1787727564 | 22.78° C | 88% | 1016.3 hPa | 0 mm | - | 0 W/m² | - |
| 1787727263 | 22.78° C | 90% | 1016.4 hPa | 0 mm | - | 0 W/m² | - |
| 1787726959 | 22.78° C | 88% | 1016.4 hPa | 0 mm | - | 0 W/m² | - |
| 1787726654 | 22.78° C | 90% | 1016.5 hPa | 0 mm | - | 0 W/m² | - |
| 1787726350 | 22.78° C | 89% | 1016.4 hPa | 0 mm | - | 0 W/m² | - |
| 1787726045 | 22.78° C | 89% | 1016.4 hPa | 0 mm | - | 0 W/m² | - |
| 1787725741 | 22.78° C | 89% | 1016.5 hPa | 0 mm | - | 0 W/m² | - |
| 1787725436 | 22.78° C | 90% | 1016.4 hPa | 0 mm | - | 0 W/m² | - |
| 1787725132 | 22.78° C | 91% | 1016.5 hPa | 0 mm | - | 0 W/m² | - |
| 1787724831 | 22.78° C | 91% | 1016.3 hPa | 0 mm | - | 0 W/m² | - |
| 1787724527 | 22.78° C | 91% | 1016.3 hPa | 0 mm | - | 0 W/m² | - |
| 1787724225 | 22.78° C | 91% | 1016.4 hPa | 0 mm | - | 0 W/m² | - |
| 1787723922 | 22.78° C | 91% | 1016.2 hPa | 0 mm | - | 0 W/m² | - |
| 1787723620 | 22.78° C | 90% | 1016.2 hPa | 0 mm | - | 0 W/m² | - |
| 1787723317 | 22.78° C | 90% | 1016.4 hPa | 0 mm | - | 0 W/m² | - |
| 1787723017 | 22.78° C | 90% | 1016.4 hPa | 0 mm | - | 0 W/m² | - |
| 1787722712 | 22.78° C | 90% | 1016.4 hPa | 0 mm | - | 0 W/m² | - |
* Rain latest hour (hover to see other rain measurements)
** Current wind speed in m/s (hover to see current wind gust speed)